TVP7774 EPKT-LTBS

Flight info

Callsign TVP7774
Flight time N/A
Altitude 370000
Route REGTO T195 RAZEC N133 KEKED APROB ADORU UG80 EKI UL854 ESKIN UW81 DEN W87 ATSAL
Aircraft B38M/M-SDE3FGHIJ1J3J4J7M3P2RWXY/LB1D1

Departure

Time N/A
Airport Katowice Wojciech Korfanty International Airport (EPKT)

Arrival

Time 2026-04-27 18:48
Airport Dalaman International Airport (LTBS)
Time Latitude Longitude Altitude Speed Heading
2026-04-27 16:49 48.58474 21.24828 37130 ft 496 kts 159°
2026-04-27 16:49 48.55343 21.27019 37122 ft 495 kts 159°
2026-04-27 16:50 48.49256 21.31904 37145 ft 497 kts 153°
2026-04-27 16:50 48.43299 21.37224 37137 ft 497 kts 152°
2026-04-27 16:51 48.37385 21.42513 37145 ft 497 kts 152°
2026-04-27 16:51 48.31437 21.47818 37146 ft 497 kts 153°
2026-04-27 16:52 48.25494 21.53105 37166 ft 497 kts 152°
2026-04-27 16:52 48.19545 21.58383 37169 ft 496 kts 153°
2026-04-27 16:53 48.13593 21.63648 37176 ft 495 kts 153°
2026-04-27 16:53 48.07693 21.68855 37179 ft 495 kts 153°
2026-04-27 16:54 48.01757 21.74078 37181 ft 495 kts 153°
2026-04-27 16:54 47.95816 21.79291 37181 ft 495 kts 153°
2026-04-27 16:55 47.89862 21.84502 37182 ft 495 kts 153°
2026-04-27 16:55 47.83957 21.89657 37172 ft 495 kts 153°
2026-04-27 16:56 47.78013 21.94831 37177 ft 494 kts 153°
2026-04-27 16:56 47.72075 21.99987 37174 ft 494 kts 153°
2026-04-27 16:57 47.66133 22.05131 37172 ft 494 kts 153°
2026-04-27 16:57 47.60201 22.10254 37173 ft 493 kts 153°
2026-04-27 16:58 47.54279 22.15355 37171 ft 492 kts 153°
2026-04-27 16:58 47.48357 22.20443 37169 ft 491 kts 153°
2026-04-27 16:59 47.42487 22.25472 37174 ft 490 kts 154°
2026-04-27 16:59 47.36585 22.30515 37168 ft 489 kts 154°
2026-04-27 17:00 47.27741 22.38049 37177 ft 489 kts 154°
2026-04-27 17:01 47.21844 22.43055 37178 ft 489 kts 154°
2026-04-27 17:01 47.15983 22.48018 37177 ft 489 kts 154°
2026-04-27 17:02 47.10082 22.53003 37177 ft 489 kts 154°
2026-04-27 17:02 47.04182 22.57973 37173 ft 488 kts 154°
2026-04-27 17:03 46.98293 22.62922 37174 ft 488 kts 154°
2026-04-27 17:03 46.92412 22.67851 37178 ft 487 kts 154°
2026-04-27 17:04 46.86520 22.72777 37178 ft 486 kts 154°
2026-04-27 17:04 46.80643 22.77678 37168 ft 486 kts 154°
2026-04-27 17:05 46.74773 22.82560 37181 ft 485 kts 154°
2026-04-27 17:05 46.68952 22.87389 37185 ft 484 kts 154°
2026-04-27 17:06 46.63085 22.92244 37177 ft 485 kts 154°
2026-04-27 17:06 46.57219 22.97087 37178 ft 484 kts 154°
2026-04-27 17:07 46.51345 23.01924 37164 ft 485 kts 154°
2026-04-27 17:07 46.45478 23.06743 37167 ft 485 kts 154°
2026-04-27 17:08 46.39640 23.11526 37165 ft 484 kts 154°
2026-04-27 17:08 46.33767 23.16325 37153 ft 484 kts 154°
2026-04-27 17:09 46.27890 23.21118 37155 ft 484 kts 154°
2026-04-27 17:09 46.22019 23.25892 37146 ft 484 kts 154°
2026-04-27 17:10 46.16149 23.30654 37157 ft 484 kts 154°
2026-04-27 17:10 46.10281 23.35402 37149 ft 482 kts 154°
2026-04-27 17:11 46.04459 23.40103 37145 ft 482 kts 154°
2026-04-27 17:11 45.95695 23.47155 37146 ft 480 kts 154°
2026-04-27 17:12 45.86970 23.54151 37145 ft 477 kts 154°
2026-04-27 17:13 45.81167 23.58790 37141 ft 476 kts 154°
2026-04-27 17:13 45.75387 23.63399 37154 ft 475 kts 154°
2026-04-27 17:14 45.69642 23.67971 37152 ft 474 kts 154°
2026-04-27 17:14 45.63869 23.72553 37152 ft 474 kts 154°
2026-04-27 17:15 45.58071 23.77144 37158 ft 476 kts 154°
2026-04-27 17:15 45.52291 23.81710 37166 ft 477 kts 154°
2026-04-27 17:16 45.46468 23.86299 37175 ft 480 kts 154°
2026-04-27 17:16 45.40611 23.90904 37162 ft 482 kts 154°
2026-04-27 17:17 45.34718 23.95526 37165 ft 484 kts 153°
2026-04-27 17:17 45.28813 24.00146 37160 ft 484 kts 153°
2026-04-27 17:18 45.19970 24.07045 37162 ft 483 kts 153°
2026-04-27 17:18 45.14066 24.11637 37162 ft 482 kts 153°
2026-04-27 17:19 45.08183 24.16202 37163 ft 481 kts 153°
2026-04-27 17:19 45.02308 24.20748 37166 ft 481 kts 153°
2026-04-27 17:20 44.96467 24.25261 37161 ft 480 kts 153°
2026-04-27 17:20 44.90597 24.29783 37171 ft 480 kts 153°
2026-04-27 17:21 44.84708 24.34309 37166 ft 480 kts 153°
2026-04-27 17:21 44.78859 24.38794 37171 ft 480 kts 153°
2026-04-27 17:22 44.73002 24.43275 37173 ft 480 kts 153°
2026-04-27 17:22 44.67124 24.47762 37170 ft 479 kts 153°
2026-04-27 17:23 44.61283 24.52210 37172 ft 478 kts 153°
2026-04-27 17:23 44.55435 24.56654 37175 ft 478 kts 153°
2026-04-27 17:24 44.49612 24.61067 37162 ft 477 kts 153°
2026-04-27 17:24 44.43758 24.65495 37170 ft 477 kts 153°
2026-04-27 17:25 44.37948 24.69880 37174 ft 476 kts 153°
2026-04-27 17:25 44.32110 24.74278 37175 ft 476 kts 153°
2026-04-27 17:26 44.26284 24.78656 37168 ft 476 kts 154°
2026-04-27 17:26 44.20470 24.83016 37172 ft 475 kts 154°
2026-04-27 17:27 44.18502 24.84490 37300 ft 475 kts 154°
2026-04-27 17:27 44.15610 24.86652 37190 ft 475 kts 154°
2026-04-27 17:27 44.09782 24.91004 37167 ft 474 kts 155°
2026-04-27 17:28 44.03988 24.95322 37168 ft 475 kts 155°
2026-04-27 17:29 43.95276 25.01891 37166 ft 475 kts 154°
2026-04-27 17:29 43.89505 25.06358 37165 ft 475 kts 154°
2026-04-27 17:30 43.83731 25.10814 37162 ft 474 kts 154°
2026-04-27 17:30 43.75085 25.17466 37161 ft 474 kts 154°
2026-04-27 17:31 43.69345 25.21871 37158 ft 473 kts 154°
2026-04-27 17:31 43.63582 25.26283 37157 ft 473 kts 154°
2026-04-27 17:32 43.54942 25.32880 37152 ft 472 kts 154°
2026-04-27 17:33 43.49197 25.37254 37155 ft 472 kts 154°
2026-04-27 17:33 43.43486 25.41592 37151 ft 471 kts 154°
2026-04-27 17:34 43.37746 25.45944 37145 ft 471 kts 154°
2026-04-27 17:34 43.31996 25.50294 37143 ft 471 kts 154°
2026-04-27 17:35 43.26254 25.54627 37134 ft 471 kts 154°
2026-04-27 17:35 43.20512 25.58952 37132 ft 471 kts 154°
2026-04-27 17:36 43.14769 25.63268 37129 ft 471 kts 154°
2026-04-27 17:36 43.09017 25.67581 37133 ft 471 kts 154°
2026-04-27 17:37 43.03271 25.71881 37131 ft 471 kts 154°
2026-04-27 17:37 42.97554 25.76150 37149 ft 471 kts 154°
2026-04-27 17:38 42.91793 25.80442 37159 ft 471 kts 154°
2026-04-27 17:38 42.86040 25.84719 37181 ft 471 kts 154°
2026-04-27 17:39 42.80286 25.88988 37197 ft 470 kts 154°
2026-04-27 17:39 42.74571 25.93218 37202 ft 470 kts 154°
2026-04-27 17:40 42.68821 25.97466 37206 ft 470 kts 154°
2026-04-27 17:40 42.63062 26.01712 37216 ft 470 kts 154°
2026-04-27 17:41 42.57295 26.05954 37213 ft 470 kts 154°
2026-04-27 17:41 42.51537 26.10180 37217 ft 470 kts 154°
2026-04-27 17:42 42.45786 26.14393 37217 ft 470 kts 154°
2026-04-27 17:42 42.40061 26.18577 37218 ft 470 kts 154°
2026-04-27 17:43 42.34296 26.22783 37219 ft 470 kts 154°
2026-04-27 17:43 42.28535 26.26976 37210 ft 470 kts 154°
2026-04-27 17:44 42.22803 26.31140 37211 ft 469 kts 154°
2026-04-27 17:44 42.17051 26.35309 37209 ft 469 kts 154°
2026-04-27 17:45 42.11297 26.39472 37215 ft 468 kts 154°
2026-04-27 17:45 42.05558 26.43615 37210 ft 468 kts 154°
2026-04-27 17:46 41.99799 26.47765 37209 ft 468 kts 154°
2026-04-27 17:46 41.94064 26.51884 37206 ft 467 kts 156°
2026-04-27 17:47 41.88256 26.55653 37203 ft 466 kts 157°
2026-04-27 17:47 41.82418 26.59458 37215 ft 466 kts 157°
2026-04-27 17:48 41.76576 26.63267 37216 ft 467 kts 157°
2026-04-27 17:48 41.70733 26.67070 37214 ft 466 kts 157°
2026-04-27 17:49 41.64891 26.70865 37217 ft 466 kts 157°
2026-04-27 17:49 41.59085 26.74629 37215 ft 466 kts 157°
2026-04-27 17:50 41.53244 26.78408 37217 ft 466 kts 157°
2026-04-27 17:50 41.44487 26.84060 37219 ft 466 kts 157°
2026-04-27 17:51 41.38654 26.87814 37216 ft 465 kts 157°
2026-04-27 17:51 41.32820 26.91562 37219 ft 465 kts 157°
2026-04-27 17:52 41.26986 26.95303 37221 ft 465 kts 158°
2026-04-27 17:52 41.21154 26.99034 37214 ft 465 kts 158°
2026-04-27 17:53 41.15319 27.02760 37215 ft 465 kts 158°
2026-04-27 17:53 41.09483 27.06480 37216 ft 465 kts 158°
2026-04-27 17:54 41.03684 27.10168 37216 ft 465 kts 158°
2026-04-27 17:54 40.97840 27.13878 37210 ft 465 kts 158°
2026-04-27 17:55 40.91998 27.17580 37212 ft 465 kts 158°
2026-04-27 17:55 40.86150 27.21277 37210 ft 465 kts 158°
2026-04-27 17:56 40.80301 27.24968 37210 ft 465 kts 158°
2026-04-27 17:56 40.74458 27.28648 37200 ft 465 kts 158°
2026-04-27 17:57 40.68617 27.32320 37201 ft 465 kts 158°
2026-04-27 17:57 40.62768 27.35990 37202 ft 465 kts 158°
2026-04-27 17:58 40.56920 27.39651 37196 ft 465 kts 158°
2026-04-27 17:58 40.51065 27.43310 37196 ft 466 kts 158°
2026-04-27 17:59 40.45248 27.46939 37196 ft 466 kts 158°
2026-04-27 17:59 40.39394 27.50583 37197 ft 466 kts 158°
2026-04-27 18:00 40.33528 27.54228 37195 ft 466 kts 158°
2026-04-27 18:00 40.27667 27.57862 37194 ft 466 kts 158°
2026-04-27 18:01 40.21802 27.61492 37189 ft 466 kts 158°
2026-04-27 18:01 40.15930 27.65119 37185 ft 466 kts 158°
2026-04-27 18:02 40.10059 27.68739 37176 ft 466 kts 158°
2026-04-27 18:02 40.04185 27.72354 37171 ft 466 kts 158°
2026-04-27 18:03 39.98345 27.75941 37181 ft 467 kts 158°
2026-04-27 18:03 39.92467 27.79544 37168 ft 467 kts 158°
2026-04-27 18:04 39.86586 27.83142 37161 ft 467 kts 158°
2026-04-27 18:04 39.80706 27.86733 37160 ft 467 kts 158°
2026-04-27 18:05 39.74812 27.90326 37155 ft 467 kts 158°
2026-04-27 18:05 39.68913 27.93915 37155 ft 468 kts 158°
2026-04-27 18:06 39.63022 27.97492 37156 ft 468 kts 158°
2026-04-27 18:06 39.57152 28.01049 37158 ft 468 kts 158°
2026-04-27 18:07 39.51241 28.04625 37153 ft 468 kts 158°
2026-04-27 18:07 39.45328 28.08196 37144 ft 469 kts 158°
2026-04-27 18:08 39.39407 28.11764 37139 ft 469 kts 158°
2026-04-27 18:08 39.33527 28.15301 37129 ft 469 kts 158°
2026-04-27 18:09 39.27615 28.18851 37122 ft 469 kts 158°
2026-04-27 18:09 39.21692 28.22400 37113 ft 469 kts 158°
2026-04-27 18:10 39.15774 28.25940 37105 ft 469 kts 158°
2026-04-27 18:10 39.09854 28.29474 37090 ft 469 kts 158°
2026-04-27 18:11 39.03926 28.33008 37089 ft 468 kts 158°
2026-04-27 18:11 38.98008 28.36526 37084 ft 468 kts 158°
2026-04-27 18:12 38.92127 28.40022 37078 ft 469 kts 158°
2026-04-27 18:12 38.86188 28.43468 37068 ft 467 kts 163°
2026-04-27 18:13 38.79927 28.45404 37062 ft 464 kts 170°
2026-04-27 18:13 38.73644 28.47321 37060 ft 464 kts 169°
2026-04-27 18:14 38.68429 28.48943 37056 ft 464 kts 169°
2026-04-27 18:14 38.62149 28.50897 37053 ft 464 kts 169°
2026-04-27 18:15 38.55868 28.52848 37057 ft 464 kts 169°
2026-04-27 18:15 38.49590 28.54794 37051 ft 464 kts 169°
2026-04-27 18:16 38.43303 28.56741 37054 ft 465 kts 169°
2026-04-27 18:16 38.37050 28.58673 37048 ft 465 kts 169°
2026-04-27 18:17 38.30750 28.60616 37046 ft 465 kts 169°
2026-04-27 18:17 38.24442 28.62559 37044 ft 465 kts 169°
2026-04-27 18:18 38.18145 28.64494 37042 ft 465 kts 169°
2026-04-27 18:18 38.15004 28.65458 36903 ft 462 kts 169°
2026-04-27 18:18 38.11898 28.66410 35983 ft 458 kts 169°
2026-04-27 18:19 38.08832 28.67351 35001 ft 458 kts 168°
2026-04-27 18:19 38.05741 28.68299 34064 ft 456 kts 168°
2026-04-27 18:19 38.02660 28.69240 33004 ft 455 kts 168°
2026-04-27 18:19 37.99579 28.70182 32005 ft 455 kts 168°
2026-04-27 18:20 37.96493 28.71124 31003 ft 457 kts 168°
2026-04-27 18:20 37.93385 28.72073 30046 ft 457 kts 168°
2026-04-27 18:20 37.90284 28.73018 28952 ft 457 kts 168°
2026-04-27 18:20 37.87196 28.73959 27915 ft 456 kts 168°
2026-04-27 18:21 37.84155 28.74885 26938 ft 454 kts 167°
2026-04-27 18:21 37.81095 28.75814 25998 ft 449 kts 167°
2026-04-27 18:21 37.78068 28.76734 25104 ft 443 kts 167°
2026-04-27 18:21 37.75090 28.77637 24255 ft 437 kts 167°
2026-04-27 18:22 37.72146 28.78530 23414 ft 431 kts 167°
2026-04-27 18:22 37.69253 28.79407 22479 ft 425 kts 167°
2026-04-27 18:22 37.66395 28.80272 21590 ft 419 kts 167°
2026-04-27 18:22 37.63575 28.81125 20749 ft 414 kts 167°
2026-04-27 18:23 37.60797 28.81965 19939 ft 408 kts 167°
2026-04-27 18:23 37.58051 28.82794 19155 ft 403 kts 167°
2026-04-27 18:23 37.55340 28.83612 18404 ft 398 kts 167°
2026-04-27 18:23 37.52663 28.84419 17570 ft 393 kts 167°
2026-04-27 18:24 37.50018 28.85203 16762 ft 388 kts 167°
2026-04-27 18:24 37.47437 28.85955 16584 ft 371 kts 167°
2026-04-27 18:24 37.44996 28.86692 15971 ft 365 kts 167°
2026-04-27 18:24 37.42534 28.87438 15258 ft 365 kts 167°
2026-04-27 18:25 37.40052 28.88188 14528 ft 368 kts 167°
2026-04-27 18:25 37.37531 28.88949 13792 ft 368 kts 167°
2026-04-27 18:25 37.35075 28.89689 13034 ft 365 kts 167°
2026-04-27 18:25 37.32632 28.90424 12480 ft 355 kts 167°
2026-04-27 18:26 37.30258 28.91138 12099 ft 349 kts 167°
2026-04-27 18:26 37.27905 28.91846 11779 ft 344 kts 167°
2026-04-27 18:26 37.25612 28.92535 11617 ft 334 kts 167°
2026-04-27 18:26 37.23385 28.93203 11481 ft 324 kts 167°
2026-04-27 18:27 37.21220 28.93853 11338 ft 314 kts 167°
2026-04-27 18:27 37.19124 28.94481 11197 ft 305 kts 167°
2026-04-27 18:27 37.17097 28.95107 11089 ft 296 kts 163°
2026-04-27 18:27 37.15316 28.96335 10720 ft 292 kts 139°
2026-04-27 18:28 37.13833 28.98015 10403 ft 282 kts 138°
2026-04-27 18:28 37.12386 28.99621 10092 ft 273 kts 138°
2026-04-27 18:28 37.11007 29.01159 9783 ft 265 kts 138°
2026-04-27 18:28 37.09652 29.02674 9462 ft 259 kts 138°
2026-04-27 18:29 37.08266 29.04111 9148 ft 258 kts 150°
2026-04-27 18:29 37.06591 29.04727 9020 ft 251 kts 180°
2026-04-27 18:29 37.04887 29.04287 9025 ft 253 kts 206°
2026-04-27 18:29 37.03450 29.03010 9036 ft 254 kts 223°
2026-04-27 18:30 37.02142 29.01519 9043 ft 255 kts 223°
2026-04-27 18:30 37.00836 29.00005 9040 ft 255 kts 223°
2026-04-27 18:30 36.99536 28.98482 9036 ft 255 kts 224°
2026-04-27 18:30 36.98259 28.96975 9030 ft 255 kts 224°
2026-04-27 18:31 36.96969 28.95445 9022 ft 255 kts 224°
2026-04-27 18:31 36.95692 28.93925 9013 ft 250 kts 224°
2026-04-27 18:31 36.94448 28.92427 8943 ft 247 kts 225°
2026-04-27 18:31 36.93508 28.90690 8886 ft 238 kts 253°
2026-04-27 18:32 36.93455 28.88650 8971 ft 239 kts 290°
2026-04-27 18:32 36.94406 28.87037 8971 ft 237 kts 328°
2026-04-27 18:32 36.95968 28.86541 8975 ft 236 kts
2026-04-27 18:32 36.97419 28.87419 8982 ft 237 kts 47°
2026-04-27 18:33 36.98147 28.89242 8995 ft 239 kts 82°
2026-04-27 18:33 36.98194 28.91335 9033 ft 242 kts 89°
2026-04-27 18:33 36.98219 28.93449 9035 ft 243 kts 88°
2026-04-27 18:33 36.98304 28.95561 9021 ft 243 kts 85°
2026-04-27 18:34 36.98399 28.97673 9036 ft 243 kts 87°
2026-04-27 18:34 36.98463 28.99793 9033 ft 243 kts 87°
2026-04-27 18:34 36.98524 29.01910 9035 ft 243 kts 87°
2026-04-27 18:34 36.98586 29.04025 9039 ft 243 kts 87°
2026-04-27 18:35 36.98646 29.06139 9043 ft 243 kts 87°
2026-04-27 18:35 36.98706 29.08229 9035 ft 243 kts 88°
2026-04-27 18:35 36.98769 29.10344 9039 ft 243 kts 87°
2026-04-27 18:35 36.98831 29.12454 9042 ft 243 kts 87°
2026-04-27 18:36 36.98744 29.14556 9022 ft 242 kts 106°
2026-04-27 18:36 36.97915 29.16374 8906 ft 247 kts 134°
2026-04-27 18:36 36.96660 29.17905 8418 ft 256 kts 127°
2026-04-27 18:36 36.95942 29.19914 8059 ft 255 kts 97°
2026-04-27 18:37 36.96104 29.22067 7831 ft 248 kts 68°
2026-04-27 18:37 36.97072 29.23785 7618 ft 242 kts 37°
2026-04-27 18:37 36.98593 29.24647 7435 ft 246 kts
2026-04-27 18:37 37.00298 29.24632 7895 ft 242 kts 355°
2026-04-27 18:38 37.01984 29.24455 8498 ft 245 kts 353°
2026-04-27 18:38 37.03533 29.23739 8581 ft 239 kts 321°
2026-04-27 18:38 37.04532 29.22118 8709 ft 238 kts 291°
2026-04-27 18:38 37.04810 29.20078 8855 ft 240 kts 266°
2026-04-27 18:39 37.04432 29.18037 9002 ft 242 kts 249°
2026-04-27 18:39 37.03963 29.15982 9011 ft 248 kts 269°
2026-04-27 18:39 37.04265 29.13889 9030 ft 251 kts 289°
2026-04-27 18:39 37.04822 29.11801 9039 ft 253 kts 288°
2026-04-27 18:40 37.05355 29.09698 9000 ft 255 kts 283°
2026-04-27 18:40 37.05354 29.07494 8624 ft 258 kts 253°
2026-04-27 18:40 37.04476 29.05550 8203 ft 260 kts 225°
2026-04-27 18:40 37.03008 29.04220 7819 ft 262 kts 211°
2026-04-27 18:41 37.01427 29.03033 7403 ft 267 kts 211°
2026-04-27 18:41 36.99840 29.01850 6964 ft 264 kts 211°
2026-04-27 18:41 36.98264 29.00684 6564 ft 260 kts 211°
2026-04-27 18:41 36.96720 28.99546 6160 ft 255 kts 211°
2026-04-27 18:42 36.95209 28.98437 5816 ft 248 kts 211°
2026-04-27 18:42 36.94231 28.97715 5601 ft 244 kts 212°
2026-04-27 18:42 36.92511 28.95988 5154 ft 236 kts 221°
2026-04-27 18:42 36.91292 28.94657 4852 ft 229 kts 220°
2026-04-27 18:43 36.90109 28.93391 4596 ft 220 kts 220°
2026-04-27 18:43 36.88956 28.92170 4296 ft 214 kts 220°
2026-04-27 18:43 36.87836 28.90991 4041 ft 205 kts 219°
2026-04-27 18:43 36.86767 28.89871 3764 ft 196 kts 219°
2026-04-27 18:44 36.85743 28.88800 3495 ft 188 kts 220°
2026-04-27 18:44 36.84776 28.87758 3273 ft 178 kts 220°
2026-04-27 18:44 36.83844 28.86741 2849 ft 179 kts 220°
2026-04-27 18:44 36.82913 28.85723 2460 ft 177 kts 220°
2026-04-27 18:45 36.81997 28.84723 2088 ft 170 kts 220°
2026-04-27 18:45 36.81128 28.83778 1707 ft 162 kts 220°
2026-04-27 18:45 36.80305 28.82886 1403 ft 151 kts 219°
2026-04-27 18:45 36.79489 28.82115 1059 ft 150 kts 210°
2026-04-27 18:46 36.78513 28.81675 926 ft 149 kts 194°
2026-04-27 18:46 36.77524 28.81345 982 ft 153 kts 194°
2026-04-27 18:46 36.76468 28.81007 842 ft 154 kts 194°
2026-04-27 18:46 36.75447 28.80655 617 ft 154 kts 195°
2026-04-27 18:47 36.74430 28.80307 402 ft 148 kts 195°
2026-04-27 18:47 36.73435 28.79970 215 ft 148 kts 195°
2026-04-27 18:47 36.72442 28.79637 26 ft 146 kts 196°
2026-04-27 18:47 36.71616 28.79352 15 ft 89 kts 195°
2026-04-27 18:48 36.71179 28.79203 15 ft 58 kts 195°
2026-04-27 18:48 36.70861 28.79095 15 ft 31 kts 195°
2026-04-27 18:48 36.70698 28.79016 17 ft 26 kts 219°
2026-04-27 18:48 36.70585 28.78886 15 ft 15 kts 227°
2026-04-27 18:49 36.70610 28.78801 15 ft 13 kts 354°
2026-04-27 18:49 36.70702 28.78830 15 ft 13 kts 15°
2026-04-27 18:49 36.70771 28.78853 15 ft 8 kts 15°
2026-04-27 18:49 36.70834 28.78874 15 ft 11 kts 15°
2026-04-27 18:50 36.70912 28.78901 15 ft 13 kts 15°
2026-04-27 18:50 36.71007 28.78933 15 ft 15 kts 15°
2026-04-27 18:50 36.71110 28.78968 15 ft 12 kts 15°
2026-04-27 18:50 36.71197 28.78997 15 ft 14 kts 15°
2026-04-27 18:51 36.71300 28.79032 15 ft 16 kts 15°
2026-04-27 18:51 36.71418 28.79073 15 ft 19 kts 15°
2026-04-27 18:51 36.71550 28.79119 15 ft 21 kts 15°
2026-04-27 18:51 36.71697 28.79168 15 ft 19 kts 15°
2026-04-27 18:52 36.71821 28.79208 15 ft 18 kts
2026-04-27 18:52 36.71884 28.79118 17 ft 16 kts 282°
2026-04-27 18:52 36.71943 28.79031 15 ft 15 kts
2026-04-27 18:53 36.72149 28.79098 14 ft 10 kts 356°
2026-04-27 18:53 36.72181 28.79053 14 ft 3 kts 285°
2026-04-27 18:53 36.72184 28.79036 14 ft 3 kts 284°
2026-04-27 18:53 36.72185 28.79034 14 ft 0 kts 284°